This demonstration page uses our WeatherBlox Daily Observations layout. Learn more.

Left ArrowRight Arrow

39.29038, -76.61219

Hourly Observations for March 20, 2018

Temp ( °F °C ) Dew Point ( °F °C ) Humidity (%) Winds ( mph kmh ) Pressure ( in mb ) Visibility ( mi km ) Precip ( " mm )
12:54 am 00:54 undefined 41 5 32 0 70 70 undefined N/A 29.91 1013 N/A 0.00 0.00
1:54 am 01:54 undefined 41 5 32 0 70 70 undefined N/A 29.92 1013 N/A 0.00 0.00
2:54 am 02:54 undefined 40 4.4 30 -1.1 68 68 undefined N/A 29.90 1012 N/A 0.00 0.00
3:54 am 03:54 undefined 40 4.4 30 -1.1 68 68 undefined N/A 29.87 1012 N/A 0.00 0.00
4:54 am 04:54 undefined 39 3.9 29 -1.7 67 67 undefined N/A 29.85 1011 N/A 0.00 0.00
5:54 am 05:54 undefined 40 4.4 26 -3.3 58 58 undefined N/A 29.85 1011 N/A 0.00 0.00
6:54 am 06:54 undefined 39 3.9 22 -5.6 50 50 undefined N/A 29.85 1011 N/A 0.00 0.00
7:54 am 07:54 undefined 38 3.3 26 -3.3 62 62 undefined N/A 29.85 1011 N/A 0.03 0.76
8:54 am 08:54 undefined 36 2.2 28 -2.2 73 73 undefined N/A 29.82 1010 N/A 0.10 2.54
9:54 am 09:54 undefined 36 2.2 28 -2.2 73 73 undefined N/A 29.82 1010 N/A 0.05 1.27
10:54 am 10:54 undefined 35 1.7 27 -2.8 72 72 undefined N/A 29.80 1009 N/A 0.05 1.27
11:54 am 11:54 undefined 34 1.1 28 -2.2 79 79 undefined N/A 29.79 1009 N/A 0.02 0.51
12:54 pm 12:54 undefined 33 0.6 29 -1.7 85 85 undefined N/A 29.80 1009 N/A 0.09 2.29
1:54 pm 13:54 undefined 33 0.6 29 -1.7 85 85 undefined N/A 29.76 1008 N/A 0.08 2.03
2:54 pm 14:54 undefined 33 0.6 29 -1.7 85 85 undefined N/A 29.76 1008 N/A 0.03 0.76
3:54 pm 15:54 undefined 33 0.6 30 -1.1 89 89 undefined N/A 29.78 1009 N/A 0.04 1.02
4:54 pm 16:54 undefined 34 1.1 30 -1.1 85 85 undefined N/A 29.79 1009 N/A 0.02 0.51
5:54 pm 17:54 undefined 33 0.6 28 -2.2 82 82 undefined N/A 29.80 1009 N/A 0.03 0.76
6:54 pm 18:54 undefined 32 0 28 -2.2 85 85 undefined N/A 29.80 1009 N/A 0.04 1.02
7:54 pm 19:54 undefined 32 0 28 -2.2 85 85 undefined N/A 29.79 1009 N/A 0.03 0.76
8:54 pm 20:54 undefined 32 0 28 -2.2 85 85 undefined N/A 29.77 1008 N/A 0.01 0.25
9:54 pm 21:54 undefined 32 0 29 -1.7 88 88 undefined N/A 29.76 1008 N/A 0.01 0.25
10:54 pm 22:54 undefined 32 0 29 -1.7 88 88 undefined N/A 29.75 1007 N/A 0.01 0.25
11:54 pm 23:54 undefined 32 0 29 -1.7 88 88 undefined N/A 29.74 1007 N/A 0.01 0.25

Powered by AerisWeather